Regional Weather Roundup
Issued by NWS State College, PA

Home | Current Version | Previous Version | Graphics & Text | Print | Product List | Glossary Off
Versions: 1 2 3 4 5 6 7 8 9 10 11 12 13 14 15 16 17 18 19 20 21 22 23 24 25 26 27 28 29 30 31 32 33 34 35 36 37 38 39 40 41 42 43 44 45 46 47 48 49 50

000
ASUS41 KCTP 040010
RWRCTP

REGIONAL WEATHER ROUNDUP
NATIONAL WEATHER SERVICE STATE COLLEGE PA
800 PM EDT FRI JUL 03 2015

Note: "fair" indicates few or no clouds below 12,000 feet with no
significant weather and/or obstructions to visibility.

* = STATION THAT DOES NOT REPORT PRECIPITATION /E.G. RAIN...SNOW...ETC/
    THUNDER OR FOG.

PAZ002>004-007>009-013>016-020>023-029>032-040100-
WESTERN PENNSYLVANIA

CITY           SKY/WX    TMP DP  RH WIND       PRES   REMARKS
ERIE           PTCLDY    68  46  45 NE10      29.92S
MEADVILLE      MOCLDY    69  55  60 N5        29.92S
FRANKLIN*      MOCLDY    73  55  53 E3        29.93R
NEW CASTLE     MOCLDY    73  66  78 CALM      29.90S
BEAVER COUNTY  RAIN      70  63  78 NE3       29.90S
BUTLER*        CLOUDY    73  63  68 SE7       29.92R
PITTSBURGH INT CLOUDY    70  65  84 S7        29.89S
PITTSBURGH     CLOUDY    71  60  68 S8        29.90S
INDIANA*       PTCLDY    73  63  68 S8        29.95S
LATROBE        LGT RAIN  72  64  78 CALM      29.92S
WASHINGTON CO* NOT AVBL
$$

PAZ004>006-010>012-017>019-024>028-033>037-041-042-045-046-049>053-040100-
CENTRAL PENNSYLVANIA

CITY           SKY/WX    TMP DP  RH WIND       PRES   REMARKS
BRADFORD       MOCLDY    71  56  58 SE5       29.96S
DUBOIS         MOCLDY    72  58  61 SE7       29.93S
CLEARFIELD     MOCLDY    72  61  68 CALM      29.94F
JOHNSTOWN      CLOUDY    66  60  81 SE9       29.96F
ALTOONA        CLOUDY    69  61  75 S7        29.96S
STATE COLLEGE  CLEAR     72  61  68 S3        29.95S
WILLIAMSPORT   MOCLDY    76  60  57 S7        29.91F
SELINSGROVE    CLOUDY    75  62  64 S5        29.94S
FT INDIANTOWN  CLOUDY    75  64  69 S3        29.94S
CAPITAL CITY   CLOUDY    76  62  62 S7        29.93S
HARRISBURG     CLOUDY    74  64  71 SE5       29.93S
YORK           CLOUDY    74  63  68 SE3       29.94S
$$

PAZ038>040-043-044-047-048-054-055-060>062-067>071-040100-
EASTERN PENNSYLVANIA

CITY           SKY/WX    TMP DP  RH WIND       PRES   REMARKS
SCRANTON       CLOUDY    75  59  57 VRB6      29.95S
MOUNT POCONO   CLOUDY    69  57  65 SW6       30.01R
ALLENTOWN      CLOUDY    77  60  55 S6        29.95S
QUAKERTOWN*    CLOUDY    75  64  69 CALM      29.97S
READING        CLOUDY    75  62  64 S6        29.94S
LANCASTER      CLOUDY    74  63  68 S6        29.95R
COATESVILLE    CLOUDY    73  66  78 CALM      29.98R
POTTSTOWN      CLOUDY    76  61  59 SW3       29.97S
BLUE BELL      CLOUDY    77  63  61 CALM      29.94S
DOYLESTOWN     CLOUDY    74  60  61 CALM      29.95S
WILLOW GROVE   NOT AVBL
NORTH PHILA    CLOUDY    78  62  57 VRB6      29.96S
PHILADELPHIA   CLOUDY    78  61  55 S9        29.95S
$$



USA.gov is the U.S. government's official web portal to all federal, state and local government web resources and services.